Theta_e
320 324 327 328 329 327 324 325 327 327 338 349 346 346 349 347 345 350 353 351 352 353 353 354 352 351 353 353 352 352 351 350 349 349 349 349 349 349 350 351 350 350 349 347 343 342 343 344 342 343 344 344 344 345 345 343 342 341 340 341 340 340 342 344 345 345 345 347 347 346 344 341 339 340 341 341 341 342 342 342 343 343 343 344 344 345
321 324 327 327 326 324 322 322 322 322 335 348 347 346 347 345 346 350 352 352 352 352 353 354 353 352 352 352 352 351 352 351 350 349 349 349 349 350 350 351 351 350 350 348 345 345 346 345 343 344 344 345 345 345 346 343 341 341 341 341 341 340 342 344 344 345 345 346 347 346 343 341 339 339 340 340 340 340 341 342 342 342 342 344 344 344
321 324 326 324 322 322 320 319 320 321 327 336 343 345 344 345 349 349 349 351 352 353 354 354 354 352 351 352 353 352 352 351 350 349 349 349 349 350 350 350 351 350 350 348 347 346 347 346 344 344 345 345 345 346 347 344 341 341 341 341 342 341 342 343 344 344 344 346 347 347 345 343 343 342 342 341 341 341 341 341 341 342 342 343 345 345
322 324 326 322 320 321 320 318 320 320 319 324 333 337 342 348 348 347 349 349 348 350 351 351 352 352 350 352 353 353 352 351 351 349 349 350 350 350 350 350 350 350 349 349 348 348 348 347 345 345 345 345 345 346 347 345 341 342 342 341 342 342 341 342 343 344 344 346 347 348 347 347 347 345 344 343 342 341 341 342 342 342 342 343 346 346
322 322 322 320 319 321 321 319 318 320 319 320 324 327 340 350 348 350 351 348 348 349 348 349 351 351 350 352 353 353 353 353 351 350 350 350 350 350 349 350 350 350 349 348 348 349 348 347 346 345 345 345 345 346 347 347 342 341 343 341 342 344 342 342 343 343 344 345 346 348 349 348 348 347 346 345 343 342 342 342 342 342 342 342 345 346
323 320 320 319 319 320 322 320 318 321 319 318 321 323 335 349 350 352 352 348 348 348 349 349 347 348 351 353 353 351 352 353 352 351 351 350 350 349 349 349 350 349 349 348 348 348 347 346 345 346 346 345 346 346 347 348 343 341 342 342 342 344 344 343 343 342 343 343 344 347 349 348 348 347 347 346 344 342 342 342 343 342 341 342 344 345
322 320 320 320 320 320 321 321 319 320 319 319 321 320 330 345 350 352 351 347 345 345 350 349 344 344 347 352 353 351 351 352 352 351 351 351 350 350 349 349 349 349 348 348 348 348 347 346 345 346 346 346 346 346 347 348 345 341 341 342 342 344 344 344 344 342 342 342 342 346 349 348 348 348 347 347 346 344 342 342 343 343 342 342 343 344
320 319 320 320 321 321 321 322 320 319 319 321 319 319 333 348 349 351 350 345 344 346 350 350 345 343 343 347 351 351 351 352 352 351 351 351 351 350 350 349 349 349 348 348 348 347 347 346 346 346 346 346 346 346 346 346 344 341 341 342 342 343 344 344 344 343 342 342 341 343 348 348 347 348 347 348 347 344 342 342 343 343 343 343 342 343
320 320 321 321 322 321 322 323 320 319 321 320 320 326 339 348 348 350 348 345 346 345 345 347 346 343 340 344 350 350 353 354 353 352 352 352 351 351 350 349 349 348 348 348 348 347 347 347 346 346 346 346 346 346 344 342 342 342 341 342 342 343 342 343 344 343 342 342 341 342 346 348 348 348 348 349 348 344 341 342 342 343 343 343 342 342
320 320 321 321 322 322 322 322 319 318 321 321 329 339 345 346 348 348 345 345 346 342 341 344 345 342 339 344 349 351 352 353 352 352 352 351 351 351 351 350 349 348 348 348 348 348 348 348 347 346 346 346 346 346 343 341 341 341 342 341 342 343 343 343 343 343 342 342 342 341 343 347 348 348 348 349 349 346 342 341 341 342 343 343 343 343
319 320 321 321 322 322 321 321 317 319 326 330 339 345 344 345 345 345 344 344 345 341 339 342 344 342 339 342 349 351 351 352 351 352 352 351 350 351 351 350 349 348 347 348 348 348 348 348 348 347 347 346 346 347 345 343 341 341 341 341 342 343 343 343 343 343 342 342 342 342 341 344 347 348 348 348 349 348 347 344 341 340 343 344 344 343
319 320 321 321 321 321 320 321 317 319 327 335 342 342 340 343 343 341 343 344 342 338 337 342 345 342 338 340 346 350 349 348 350 351 351 352 351 350 351 350 350 348 347 347 347 348 348 347 347 347 347 347 347 347 346 344 342 341 341 340 341 342 344 344 344 343 343 342 342 342 342 343 345 348 348 348 349 349 349 349 344 341 343 345 345 345
320 321 320 320 321 321 320 321 318 318 320 327 337 335 332 339 342 340 341 340 338 336 336 342 346 343 341 342 344 348 348 348 350 352 352 352 351 350 350 350 350 349 347 346 347 347 347 347 347 347 347 347 347 347 346 345 343 342 341 340 341 341 343 345 344 343 342 341 341 342 342 342 343 346 348 348 348 348 349 350 348 344 345 346 347 347
319 319 318 319 322 321 321 320 318 319 318 321 332 330 327 337 341 340 339 336 333 334 336 342 345 342 341 342 344 345 346 349 350 352 353 352 351 350 351 350 350 349 348 347 346 346 346 347 346 347 347 347 347 346 346 345 344 343 342 341 341 341 343 344 345 343 341 340 339 340 341 341 342 344 347 347 346 347 348 349 349 348 347 348 348 348
317 317 318 319 321 320 322 322 319 321 319 319 331 332 328 332 334 335 336 332 330 335 338 341 342 339 338 341 345 346 346 347 348 351 353 352 351 350 350 350 350 349 348 347 346 346 346 346 346 346 346 346 346 346 346 345 344 344 343 342 341 341 342 344 344 343 341 339 338 338 339 339 340 341 345 347 346 346 346 347 348 348 348 347 347 348
316 317 319 319 320 320 321 322 320 321 318 319 330 332 328 331 331 331 332 330 332 336 340 341 339 339 340 342 347 348 346 345 346 350 353 352 351 350 350 350 350 350 349 347 347 346 345 345 345 345 346 346 346 346 346 345 344 344 343 342 341 341 342 343 343 343 341 339 338 337 337 337 338 339 342 345 345 345 345 346 346 346 347 347 346 346
316 317 320 318 318 320 321 321 320 320 319 320 324 326 328 333 334 331 330 332 332 332 336 338 336 338 339 340 347 349 345 345 347 350 353 352 351 350 349 350 350 351 349 347 347 347 346 345 344 345 345 345 345 345 345 344 343 343 343 342 341 341 342 342 342 342 341 340 339 337 337 336 337 338 339 342 343 344 345 346 346 346 346 346 346 346
316 317 319 320 319 320 321 321 320 321 322 321 321 326 329 331 332 331 330 332 332 330 333 336 334 335 335 337 347 351 347 347 348 349 353 353 352 350 349 350 350 350 349 347 347 347 347 346 345 344 344 344 345 344 344 343 343 343 343 342 341 341 342 342 342 341 339 339 338 337 336 336 336 336 337 339 342 343 344 345 345 346 345 345 345 345
316 316 319 319 320 320 320 320 319 320 322 320 322 328 329 326 326 328 329 330 331 330 332 334 336 336 334 336 346 352 350 349 349 350 351 352 352 351 350 350 349 349 348 348 348 348 346 345 344 343 343 343 344 344 344 343 343 343 343 343 342 341 342 342 343 342 340 339 338 336 335 336 336 336 336 337 340 343 343 343 344 345 346 345 344 344
317 317 318 318 319 319 320 320 319 319 320 321 324 326 325 324 325 326 328 327 328 330 330 332 336 336 336 340 348 352 351 351 350 350 350 352 352 351 350 349 349 349 348 348 349 348 346 344 342 342 342 342 343 343 343 343 343 343 343 343 342 342 342 342 343 342 341 340 338 336 335 335 335 336 335 336 339 341 341 341 343 344 345 345 345 345
319 318 318 319 319 318 320 321 320 321 321 320 322 322 321 323 325 326 328 328 328 331 330 329 330 334 339 342 347 351 350 349 351 350 351 353 352 351 350 349 349 349 348 348 349 348 347 344 342 341 341 341 342 342 342 343 343 343 343 342 342 341 342 343 343 343 342 341 339 337 335 333 333 333 334 334 335 336 337 339 340 342 342 343 344 345
321 320 319 320 319 317 320 320 320 322 322 321 323 322 321 323 323 322 324 329 331 331 332 329 327 332 339 339 343 347 348 350 351 351 352 353 352 352 351 349 349 348 347 348 348 348 348 346 344 343 342 341 341 341 342 342 342 342 342 342 342 342 342 342 343 343 343 342 341 340 337 335 333 331 332 333 333 333 334 334 335 336 338 339 342 345
322 323 322 321 320 320 320 320 319 318 320 321 321 322 323 324 324 319 320 328 332 332 334 330 327 334 340 340 342 346 348 351 352 352 352 352 352 352 351 350 349 348 348 348 347 347 348 347 346 345 344 343 342 342 341 342 342 342 342 342 342 342 341 342 342 343 343 343 343 342 341 340 338 336 334 334 333 333 333 333 332 332 333 335 339 343
323 324 324 322 321 321 320 319 319 317 319 320 319 320 321 321 323 322 325 331 330 330 333 329 327 337 342 341 344 346 348 350 351 352 352 351 351 351 351 350 349 349 349 348 348 348 348 348 347 346 346 346 346 344 343 342 342 342 342 342 342 342 342 342 342 342 343 343 343 343 343 343 344 342 340 338 336 336 336 336 333 331 332 333 336 340
324 324 324 320 317 319 318 318 319 320 321 321 321 321 320 322 327 329 332 335 331 332 335 327 325 337 342 341 344 345 347 349 349 349 349 349 349 349 350 351 350 350 350 349 349 349 348 348 347 346 346 347 347 347 346 345 344 343 343 343 342 342 342 342 343 343 343 343 344 344 344 344 345 345 344 343 341 340 340 339 337 333 332 332 334 337
324 324 325 322 318 318 320 319 319 321 322 321 322 324 323 325 329 330 332 331 330 336 338 328 328 340 342 341 343 344 346 347 347 346 347 346 347 347 348 349 350 351 351 350 350 350 349 349 348 348 348 347 347 347 347 347 347 346 345 344 343 342 342 343 343 343 343 344 344 344 344 344 345 346 346 346 345 344 342 341 339 335 333 333 334 337
328 327 325 324 321 319 320 321 319 322 324 323 324 327 327 327 329 332 332 328 330 336 337 334 338 343 344 343 343 344 343 343 344 344 344 344 344 345 345 346 348 350 350 351 350 350 350 350 350 350 350 349 348 347 347 347 347 345 345 343 342 343 343 343 343 343 343 343 343 344 344 344 345 346 347 347 347 346 345 344 342 338 335 334 335 336
331 329 323 322 321 319 320 320 320 323 325 325 326 328 330 331 330 331 330 330 335 334 331 340 345 344 344 343 343 344 342 341 342 342 342 342 341 342 343 345 347 349 349 350 350 350 350 349 350 350 351 351 350 348 348 347 346 345 344 344 344 344 344 344 343 343 343 343 344 345 345 345 346 346 346 346 346 347 347 347 345 341 337 335 336 337
330 332 328 322 319 319 319 319 320 324 325 327 329 328 331 333 333 333 332 334 339 333 330 341 347 343 344 343 342 343 342 341 342 341 340 340 340 341 343 344 345 347 348 349 349 349 348 347 348 349 349 350 351 350 350 348 348 347 347 346 346 345 345 345 345 344 344 345 346 346 346 346 346 346 346 346 346 347 348 348 348 345 340 336 335 337
326 333 332 325 320 321 321 319 321 324 324 326 329 329 331 333 334 336 336 336 340 339 336 341 345 344 343 341 341 342 342 341 341 339 339 340 341 342 342 342 342 344 346 347 347 347 347 347 346 347 348 349 349 350 350 350 350 349 349 349 348 348 347 346 346 346 345 346 346 347 347 346 346 346 346 346 347 348 348 347 349 349 345 340 338 340
322 326 330 329 323 319 321 321 320 323 324 324 325 327 330 333 334 336 337 337 339 341 340 341 344 344 341 341 342 341 340 340 338 338 339 340 341 341 341 341 342 343 345 346 346 347 346 346 346 346 347 348 348 349 349 350 350 350 350 349 349 349 349 348 348 348 347 348 348 348 348 347 347 347 346 346 347 348 347 346 348 349 348 346 345 346
323 323 329 333 327 321 321 322 322 323 324 323 322 324 327 332 334 334 335 336 338 341 342 342 342 342 340 341 341 339 338 338 338 338 339 338 340 341 340 340 342 343 344 344 345 345 343 343 345 345 346 346 346 348 348 348 349 349 350 349 349 349 349 349 349 349 349 350 350 350 349 348 349 350 349 348 348 348 348 348 348 349 349 349 349 349
323 323 328 332 330 325 322 322 324 324 324 324 321 320 323 328 332 335 335 335 335 337 340 341 339 339 340 340 339 338 337 337 337 337 337 336 337 338 338 339 340 342 343 344 344 343 341 342 343 344 344 345 345 346 346 347 347 347 348 348 348 348 348 349 349 349 349 349 349 349 349 349 350 350 349 350 350 351 351 350 350 349 350 350 350 350
323 324 325 328 331 329 325 324 326 326 325 323 320 319 321 323 328 335 335 333 333 335 336 337 336 337 339 339 338 338 337 335 335 334 334 335 335 335 336 336 337 340 342 342 342 343 342 342 343 344 345 345 345 345 346 346 346 346 347 347 347 347 347 348 348 348 348 348 348 348 347 348 348 347 347 348 350 351 353 352 351 351 351 351 350 350
323 324 324 325 329 332 332 328 325 325 326 323 319 320 321 318 320 330 333 331 332 334 334 336 336 337 339 339 338 338 335 333 332 331 331 333 336 337 337 336 337 339 340 341 341 342 342 341 342 343 344 344 345 345 345 346 345 345 345 346 346 346 346 347 347 347 347 347 347 347 347 348 347 347 347 348 348 349 351 352 352 352 351 351 350 349
322 323 323 322 322 327 332 329 325 325 325 322 321 321 321 318 319 327 333 332 330 331 333 335 336 338 338 337 336 334 331 330 329 328 329 332 335 336 337 337 335 335 337 339 339 340 340 340 340 340 341 341 342 343 343 343 343 344 344 344 344 344 344 345 346 345 346 346 345 345 346 345 345 346 346 347 347 348 349 350 351 351 351 350 350 349
320 323 323 321 319 322 327 326 324 325 323 322 323 322 321 320 319 322 330 332 329 329 332 334 335 336 336 333 331 330 329 329 329 327 326 330 333 333 333 334 333 332 334 335 335 336 337 337 337 338 338 339 340 341 341 341 341 342 342 341 341 340 340 342 343 342 343 342 342 343 343 342 341 342 343 343 345 347 348 349 349 349 350 350 349 349
318 322 324 321 319 321 324 323 322 323 323 323 323 321 321 321 319 319 325 330 330 329 330 333 336 335 333 332 330 329 331 332 332 328 325 328 331 330 330 331 331 331 331 330 331 333 334 334 334 334 335 336 336 335 335 337 338 340 339 339 339 338 338 338 337 337 338 338 337 338 339 338 338 339 340 340 341 343 345 346 346 346 346 347 347 347
318 320 323 321 319 321 323 322 322 324 325 324 322 321 322 320 318 319 322 325 328 328 329 332 335 335 333 332 331 332 334 335 334 329 325 325 326 326 327 327 326 326 326 325 327 331 332 330 328 327 327 327 326 324 324 326 328 330 331 331 331 332 333 334 331 329 329 331 331 330 330 330 331 332 333 333 335 337 340 341 341 341 341 342 343 344
319 319 319 318 318 320 321 321 321 323 324 323 321 322 322 319 318 321 322 321 324 327 328 329 333 334 333 332 332 334 337 337 334 329 325 325 325 325 325 325 324 323 324 324 327 332 331 328 325 324 322 322 321 321 321 321 321 320 319 319 319 320 321 323 324 323 321 322 323 323 323 323 323 324 325 326 328 330 332 333 333 334 335 336 337 338
319 318 317 316 317 318 318 319 320 321 321 321 321 321 320 318 319 323 324 321 320 324 327 328 330 332 331 331 332 334 334 334 332 329 328 327 326 325 325 324 323 323 323 323 327 330 330 327 325 324 322 322 322 323 323 323 321 318 316 314 315 315 314 314 315 316 316 316 316 316 317 318 318 317 318 319 320 321 322 323 325 326 326 327 329 331
317 318 318 317 316 315 316 317 318 319 319 318 320 321 320 320 321 322 322 320 319 323 327 327 327 329 330 330 331 330 330 330 329 328 328 327 326 325 324 323 322 322 322 323 324 325 325 325 325 324 323 323 323 323 322 321 319 317 315 313 312 313 312 312 311 310 311 312 313 313 313 314 314 313 313 314 314 314 315 316 317 318 319 321 324 326
316 316 316 317 316 315 316 315 315 318 319 317 319 322 323 323 322 321 321 321 319 321 326 327 327 327 328 329 328 328 329 329 328 327 327 326 326 325 323 322 321 321 322 322 323 322 322 323 323 323 322 322 322 321 321 320 319 317 315 313 311 311 311 311 310 308 307 308 309 310 311 312 312 312 312 312 312 312 312 312 313 314 316 320 322 324
316 316 316 317 317 316 317 316 317 319 319 317 320 322 322 321 320 319 320 321 320 320 324 327 327 326 326 328 327 327 328 327 326 326 326 325 325 324 322 320 320 321 321 322 322 322 322 322 322 321 321 321 320 319 319 317 316 314 312 311 311 311 311 310 308 306 306 306 306 307 309 309 311 312 312 313 313 312 312 312 313 314 315 318 320 321
317 316 316 317 317 317 318 318 318 319 318 317 318 319 318 318 318 318 319 320 321 321 323 326 327 326 326 327 326 326 326 325 324 325 326 325 324 324 322 320 319 319 320 320 321 321 321 320 319 317 317 317 316 315 314 313 311 310 310 309 310 310 310 309 308 306 305 306 306 306 307 308 309 310 311 311 312 313 313 313 313 314 315 315 317 318
317 316 316 317 318 318 317 318 319 320 319 317 317 317 317 317 318 318 318 319 321 322 323 325 326 326 326 326 325 325 324 323 321 322 323 324 324 323 323 321 319 319 320 319 319 319 318 317 315 314 313 313 312 311 310 310 309 309 308 308 309 309 308 307 307 306 306 306 306 307 307 307 307 307 307 307 308 309 310 311 312 312 313 314 315 317
318 317 317 319 319 318 319 319 320 320 319 317 317 317 317 317 318 318 318 318 319 321 323 324 326 326 326 326 325 324 324 322 321 320 320 321 322 322 322 321 319 319 319 319 318 317 316 315 315 314 313 311 311 310 310 309 309 309 308 308 308 308 307 306 306 306 306 306 306 306 307 307 307 306 306 306 306 306 306 307 307 308 309 310 312 313
318 318 319 320 319 318 320 320 319 318 318 317 317 317 317 317 318 318 318 318 318 319 321 324 325 326 327 326 324 324 323 323 322 322 321 320 321 321 321 320 320 319 318 317 317 316 315 315 315 315 314 313 312 311 309 309 308 308 308 308 308 307 307 307 306 306 306 306 306 306 306 306 306 306 306 306 306 306 306 306 305 306 306 306 307 307
318 318 319 320 320 319 319 319 318 318 319 318 317 317 317 317 317 317 317 318 317 318 320 323 324 325 325 325 325 325 324 323 323 323 322 320 320 320 320 320 319 319 317 317 316 315 315 315 315 315 314 313 311 310 309 308 307 307 307 307 307 307 307 307 306 306 306 306 306 305 305 305 305 305 305 305 305 305 305 305 305 305 305 305 305 305
319 320 319 319 320 320 320 320 319 320 320 319 318 317 317 317 317 317 317 317 317 317 318 320 322 323 324 324 324 324 325 324 323 323 322 320 319 319 319 319 318 318 317 316 316 317 316 315 315 315 314 312 310 310 308 307 306 307 307 307 307 307 307 307 307 306 306 306 306 306 305 305 305 305 304 304 304 304 304 304 304 304 304 304 304 304
320 321 320 319 319 319 319 319 318 319 320 320 318 317 318 317 317 317 317 317 317 317 317 317 318 319 321 322 323 323 323 323 323 322 321 320 319 319 318 318 318 317 316 316 317 318 318 316 316 315 313 311 310 308 307 307 307 307 307 307 307 307 306 306 306 306 306 306 305 305 305 305 305 304 304 304 304 303 303 303 304 304 304 304 304 304
Wind_Speed
7 6 6 5 5 5 4 5 3 1 5 9 7 6 6 5 4 4 3 7 11 8 7 8 5 5 7 9 15 18 17 16 18 19 20 20 20 20 18 17 18 19 19 19 20 19 17 17 17 18 16 15 14 13 11 11 13 13 13 14 15 16 16 15 15 15 14 13 11 10 10 10 10 10 10 9 8 8 7 7 7 7 7 6 6 5
6 6 6 4 3 2 2 5 4 3 6 9 8 7 7 6 2 1 3 6 8 5 4 5 4 3 4 7 13 18 16 15 19 21 21 22 20 20 18 17 18 17 17 18 20 20 18 17 18 18 17 15 15 14 12 12 13 13 14 14 15 16 17 16 15 14 14 13 10 9 9 9 9 9 9 8 8 8 7 7 7 7 6 6 6 5
6 7 5 5 3 1 1 4 5 3 5 5 5 6 4 5 5 5 3 4 5 3 4 6 6 3 3 6 11 17 18 16 20 22 21 23 21 20 19 18 18 17 17 19 20 21 20 19 19 18 17 15 14 14 13 12 13 14 14 15 16 17 17 16 15 14 13 12 11 9 9 8 8 8 8 8 8 8 7 7 7 7 7 7 6 6
5 5 5 6 5 4 1 3 5 3 3 2 3 4 2 6 6 2 3 6 2 0 3 6 6 3 3 6 7 15 18 16 19 19 17 19 20 19 19 19 19 19 19 20 21 21 21 21 21 20 18 16 15 15 14 14 14 15 15 16 16 17 17 16 14 13 12 12 11 10 9 9 8 7 8 8 8 7 7 6 6 6 7 7 6 6
3 2 6 8 6 6 4 4 5 3 2 1 2 2 2 6 5 3 7 7 4 1 2 6 3 3 5 8 7 10 12 13 17 18 15 15 17 17 17 19 20 20 22 22 21 22 22 23 22 21 19 17 17 16 16 16 16 16 16 16 16 17 16 15 14 12 12 12 12 11 10 10 8 8 7 7 7 7 6 6 5 5 6 7 7 6
3 4 8 9 7 6 5 4 4 3 2 0 3 4 4 7 6 8 12 10 5 3 5 7 4 2 5 10 9 8 8 11 14 17 17 16 16 16 18 20 20 20 23 23 22 23 24 23 22 21 20 19 18 17 17 17 17 17 16 16 16 16 16 15 14 13 12 12 12 12 11 10 9 8 8 6 6 5 5 5 5 5 6 7 7 7
3 5 7 8 9 7 5 5 4 3 2 1 3 5 7 8 8 12 13 9 4 3 6 9 6 2 4 8 10 9 10 12 12 15 20 19 17 18 19 20 21 21 22 23 23 24 24 24 23 22 21 20 18 17 17 17 19 18 17 17 17 16 15 15 14 14 14 13 13 13 12 11 10 8 7 5 4 5 5 5 5 5 5 5 6 6
4 7 6 7 9 8 6 5 4 4 3 1 1 4 8 10 11 13 11 6 2 2 5 9 5 3 3 5 8 10 12 13 13 14 18 20 20 19 19 20 22 23 23 23 24 25 26 25 24 23 21 20 18 17 17 18 20 20 18 17 17 15 15 14 14 14 15 14 14 14 13 11 10 8 6 5 4 5 5 5 5 4 4 5 5 5
3 6 8 8 7 6 6 4 5 6 2 1 0 3 7 8 9 11 7 4 2 2 4 7 5 4 4 2 6 10 11 13 17 17 16 20 23 21 20 20 22 25 26 26 26 27 28 26 24 23 21 20 19 19 18 17 19 21 20 18 17 15 14 14 14 14 15 14 14 15 14 12 10 8 7 7 6 6 6 5 5 5 4 4 5 5
1 4 7 8 6 5 5 4 7 8 2 1 4 7 7 7 7 6 4 3 3 2 4 8 8 5 3 3 6 9 11 13 16 15 15 21 26 24 22 20 21 26 29 29 28 29 29 27 24 23 22 21 21 20 18 17 17 19 20 20 19 16 14 13 13 14 15 15 15 15 14 12 10 9 8 8 8 7 7 6 6 5 4 5 5 5
1 1 3 5 5 4 5 4 5 7 6 8 8 9 9 7 6 4 1 2 3 3 2 8 12 6 3 4 7 9 7 10 14 12 13 20 25 24 23 22 21 26 30 30 30 31 29 27 25 25 24 23 23 22 20 19 18 18 20 21 20 18 15 13 12 13 15 16 15 14 14 13 11 10 9 9 9 8 7 6 6 6 5 5 5 4
1 2 2 3 6 4 4 4 2 2 5 7 7 8 7 5 4 3 2 1 3 2 1 4 11 8 5 3 6 8 5 6 12 14 14 18 23 26 24 23 22 25 30 31 31 32 31 29 28 28 27 26 25 24 23 22 20 18 19 20 20 19 17 15 13 13 14 15 15 14 14 13 12 11 10 10 9 8 8 7 6 7 6 6 5 4
3 4 2 3 7 7 6 5 3 1 4 5 6 8 6 4 3 2 2 2 4 1 3 3 8 7 7 4 2 8 9 8 12 16 17 20 26 30 27 24 23 24 28 31 31 32 32 32 31 31 30 29 28 26 25 23 22 20 19 19 20 20 19 17 15 14 14 15 16 15 14 14 13 12 12 11 9 8 8 7 7 7 6 5 4 2
4 3 3 4 6 8 9 6 4 4 5 7 7 8 6 5 5 4 3 2 3 2 2 5 7 4 5 2 1 5 10 11 13 16 20 25 30 31 28 25 24 25 29 31 32 32 32 32 32 32 31 30 28 27 26 25 24 22 21 20 20 19 19 18 17 16 15 16 16 15 15 14 14 14 14 13 11 9 8 8 8 8 7 5 4 2
4 3 6 8 5 9 12 9 6 6 6 7 6 5 5 5 4 4 4 4 2 2 4 6 6 3 2 2 1 4 7 11 14 14 18 26 31 30 26 23 24 27 30 32 33 32 31 32 32 32 31 30 29 27 27 27 25 24 22 21 20 20 19 19 19 17 17 17 17 16 16 15 15 15 16 15 13 10 9 8 8 8 7 6 4 3
3 3 3 4 4 10 13 8 6 7 6 5 4 5 5 4 4 2 2 2 2 3 4 5 3 2 1 1 1 2 4 8 14 16 17 22 27 27 24 22 22 24 28 31 32 32 32 31 31 32 31 30 30 28 28 28 26 25 23 22 20 20 19 19 19 18 18 18 17 17 17 16 16 16 16 17 15 12 10 9 8 7 7 7 6 5
2 2 1 1 3 10 13 12 10 8 5 4 5 6 2 1 2 3 2 2 1 3 3 3 4 1 1 2 1 1 3 7 12 16 17 20 25 27 26 24 21 21 25 29 31 31 32 31 30 31 31 31 30 29 28 27 26 25 23 22 21 21 20 19 18 18 18 18 18 18 18 17 17 17 16 16 16 14 12 10 9 8 8 8 7 6
2 4 1 3 6 7 8 11 9 5 5 5 6 7 4 1 1 0 2 3 3 4 2 3 6 3 2 2 2 3 5 8 10 13 15 18 23 26 27 26 24 23 25 26 27 29 29 30 29 29 30 31 30 28 27 27 26 26 25 23 22 21 21 20 19 18 18 19 19 19 18 18 17 17 17 16 15 15 13 12 11 9 8 8 8 7
2 4 1 3 5 3 5 7 5 3 2 1 5 9 5 3 3 2 2 3 4 3 2 3 4 4 4 3 2 5 6 8 10 11 13 17 21 22 25 27 26 25 24 23 23 25 26 27 27 28 29 30 31 29 28 28 28 28 27 25 23 22 21 20 19 19 18 18 19 19 18 18 18 18 17 16 16 16 15 13 12 11 10 9 9 9
2 3 0 2 1 3 5 7 6 6 4 2 4 9 3 2 4 3 2 2 3 3 3 3 2 3 4 1 1 5 7 7 10 10 10 17 21 21 26 31 28 25 25 23 21 21 21 24 25 26 28 29 31 31 30 30 30 29 28 26 24 22 21 20 20 19 18 18 18 18 18 18 18 18 18 17 17 16 16 14 13 13 12 11 10 10
2 2 1 1 1 4 6 5 6 9 9 5 6 8 4 1 2 2 2 0 1 3 3 4 4 2 1 1 1 4 6 7 9 10 10 16 20 20 25 31 29 27 28 28 24 21 19 20 22 22 25 27 28 29 30 30 30 29 28 27 25 24 22 21 20 19 18 18 18 17 17 18 18 18 18 17 17 17 16 15 14 14 13 12 12 11
1 1 2 1 1 5 3 1 3 5 8 8 7 8 8 5 4 5 4 1 1 1 2 3 4 1 2 1 1 3 6 7 9 10 11 14 18 18 19 25 28 28 29 30 29 27 23 22 22 21 21 23 24 25 26 27 28 28 27 27 27 26 24 22 20 18 17 17 17 17 17 17 17 18 18 18 18 17 16 16 15 15 14 14 13 12
1 1 2 2 1 2 1 2 1 2 2 4 2 5 7 6 6 8 6 4 3 1 0 1 3 0 2 1 2 5 6 7 9 11 12 13 16 17 16 19 24 26 27 27 28 28 27 26 25 24 22 21 22 23 24 25 25 25 26 27 28 27 25 22 20 19 19 18 17 17 17 17 17 17 17 18 19 18 17 17 16 16 15 15 14 14
1 0 1 1 0 1 0 2 3 1 2 3 2 2 2 3 3 3 3 4 6 4 3 3 3 1 2 1 3 7 8 7 8 10 12 12 14 15 15 16 19 21 22 24 25 25 26 26 26 26 26 23 22 23 24 26 26 26 26 27 29 28 26 23 22 21 20 19 19 20 19 19 18 17 16 17 18 18 18 18 18 17 16 16 15 15
0 1 1 2 3 4 4 5 5 2 1 2 2 3 2 1 3 4 3 3 5 4 3 5 5 2 3 2 5 8 10 9 9 10 11 11 12 13 13 14 15 16 17 19 21 22 23 25 25 26 27 25 22 22 24 26 27 27 26 27 29 29 28 26 24 24 23 21 21 21 21 21 20 20 18 17 17 17 18 18 19 18 17 17 17 15
0 1 2 1 3 4 4 4 3 1 2 2 2 5 4 1 3 3 3 3 5 3 2 5 4 2 3 5 7 8 10 10 10 10 10 10 11 11 11 13 14 15 16 17 19 20 21 23 24 24 25 26 25 25 25 26 27 28 27 28 29 29 28 27 26 25 24 23 22 22 21 20 20 21 20 19 18 17 18 18 18 18 18 18 17 16
2 2 4 3 4 3 1 1 2 2 1 2 4 6 5 3 2 0 3 5 4 5 4 4 2 4 7 9 9 10 10 10 10 11 11 12 11 11 11 12 14 16 17 18 18 19 19 18 19 19 20 22 24 25 25 26 27 28 28 28 29 28 28 28 27 26 26 24 23 22 22 20 19 20 21 20 19 18 18 19 19 19 19 19 18 17
2 3 4 4 7 5 1 1 1 2 6 7 7 8 7 5 2 2 3 3 4 6 5 4 6 7 9 12 12 11 10 9 10 12 12 12 12 11 12 14 15 16 16 16 17 17 15 14 15 18 19 20 22 23 24 24 24 25 26 27 27 26 26 26 26 26 27 26 24 23 24 23 21 20 21 21 19 18 18 19 19 19 19 19 18 17
1 2 2 2 5 6 5 4 2 4 8 10 12 12 10 8 4 1 1 2 2 3 2 4 9 7 7 12 13 10 10 11 12 13 13 13 12 12 14 14 14 15 15 15 14 13 12 12 14 16 16 17 19 21 23 23 22 22 23 23 23 23 23 23 23 24 25 24 23 22 23 25 23 22 22 22 21 19 18 18 19 19 20 20 19 18
0 1 1 1 1 4 7 6 3 4 8 13 15 14 12 10 8 6 4 4 3 2 2 4 8 4 4 11 12 10 12 14 14 14 14 14 14 14 14 14 13 13 15 14 13 11 12 12 11 11 12 13 14 15 17 19 19 19 19 19 19 19 21 22 22 22 23 23 23 22 23 24 24 24 24 24 22 19 18 19 20 20 20 20 20 19
2 1 1 1 2 4 8 7 3 3 7 14 17 16 15 12 10 9 6 5 5 3 2 6 8 5 4 10 13 12 13 14 15 14 14 14 14 14 15 15 15 15 14 14 14 14 13 12 10 9 9 11 12 12 13 14 15 15 16 17 18 18 19 20 20 21 22 21 21 21 21 22 23 25 26 25 24 21 20 20 21 21 21 20 19 18
2 1 1 1 1 3 7 9 6 1 3 11 16 16 15 13 8 7 7 6 5 3 4 7 6 2 6 12 13 12 13 15 15 14 13 13 13 14 15 15 16 16 15 15 15 13 11 9 9 8 8 8 9 10 11 12 11 12 13 15 16 16 17 18 19 20 20 19 19 19 20 22 23 25 24 24 25 23 21 21 22 22 21 20 19 18
2 1 2 1 1 2 7 9 7 2 1 6 11 10 9 9 7 4 5 7 6 4 2 2 3 3 10 13 11 11 12 13 13 12 12 12 13 14 15 15 16 16 16 16 15 13 10 9 9 8 8 7 6 6 7 7 7 7 8 10 12 13 15 17 18 19 20 19 18 18 19 19 21 22 22 21 23 23 22 22 22 22 21 20 20 19
1 1 1 1 2 1 5 7 5 4 3 2 4 5 3 5 8 5 4 6 6 5 4 3 2 7 13 13 11 12 11 10 10 9 10 13 15 16 16 16 16 17 17 16 15 13 11 10 10 10 10 9 8 8 7 5 5 8 8 8 9 9 11 12 14 15 17 16 15 14 14 13 13 15 17 19 22 22 23 23 23 22 21 20 20 19
1 2 1 1 1 1 1 3 1 1 2 3 1 4 2 1 5 3 3 6 8 6 5 4 4 9 12 13 14 13 11 10 9 8 9 13 16 17 18 17 16 17 17 18 16 14 12 10 9 10 11 11 10 9 7 6 7 10 11 10 9 10 11 13 14 15 15 15 15 15 16 16 16 17 18 19 19 19 20 20 20 19 18 18 18 17
1 2 2 1 1 1 2 1 2 1 2 1 1 4 3 1 4 1 3 7 10 7 5 5 8 10 12 14 15 14 13 13 11 8 8 12 14 14 15 16 15 15 16 17 16 14 12 10 9 9 9 9 9 8 8 8 10 12 13 13 13 13 15 16 17 17 16 15 14 14 14 13 14 16 17 16 15 15 15 14 14 14 14 14 14 13
1 2 2 1 1 0 2 2 1 1 2 2 1 4 3 2 4 3 1 5 8 7 3 5 9 11 12 14 15 16 15 13 10 6 6 11 13 13 13 14 15 14 14 15 14 13 12 10 9 10 9 9 8 7 8 9 10 13 15 16 16 16 16 15 14 13 12 11 10 9 7 6 6 7 8 8 9 11 11 10 10 10 10 10 10 10
2 1 1 1 1 1 1 4 3 4 4 2 2 4 3 4 4 4 2 2 6 8 4 4 9 12 14 14 16 18 15 9 4 3 6 11 13 13 13 14 13 13 13 14 14 13 13 12 11 11 11 11 10 10 9 8 8 9 11 13 13 13 13 14 13 11 10 9 8 6 4 4 4 3 4 5 6 7 8 8 8 8 8 8 9 9
4 2 1 2 2 0 2 3 3 3 2 1 5 8 8 5 4 5 2 2 6 7 4 2 8 13 15 16 19 18 12 6 4 5 8 13 14 13 14 14 13 13 13 13 14 14 15 15 14 13 12 13 13 13 11 8 7 7 8 9 9 8 7 9 11 10 8 7 7 6 6 5 5 4 4 5 5 5 5 5 6 6 6 7 7 8
5 3 2 3 3 2 1 2 2 1 2 2 7 11 12 5 2 4 1 2 5 6 3 2 7 11 14 16 18 14 7 5 8 10 13 16 15 13 13 13 14 14 14 13 14 15 16 16 15 14 13 14 14 13 10 7 6 7 8 8 7 7 6 5 6 7 7 5 4 3 4 5 5 5 4 4 4 4 4 4 4 4 5 5 5 6
3 2 2 2 3 2 2 3 2 1 1 3 9 13 12 3 2 1 1 2 6 6 2 4 5 8 11 14 12 5 2 9 17 20 20 18 17 15 13 13 14 14 13 14 15 16 15 15 14 13 13 13 13 11 8 5 4 5 6 5 4 4 4 5 5 5 5 5 4 3 2 2 3 3 2 3 3 2 2 2 2 2 2 2 3 3
1 1 1 1 1 2 2 2 2 2 1 5 12 12 7 1 1 2 3 6 8 5 4 5 6 7 8 9 6 1 6 16 22 24 22 20 19 17 14 14 15 14 13 13 14 15 15 14 13 12 11 11 10 8 5 3 2 2 3 3 2 1 1 2 2 3 3 3 1 2 4 2 0 0 1 1 1 1 1 1 2 2 2 2 2 2
1 1 1 1 0 1 1 2 1 2 2 8 12 7 4 3 1 2 5 7 7 3 4 7 8 9 9 9 6 4 9 17 21 23 22 20 19 17 16 16 16 15 14 14 13 13 12 13 13 12 10 10 8 6 3 1 1 2 3 4 2 1 1 0 2 2 2 1 2 3 4 3 2 2 2 2 2 2 2 3 3 3 3 3 2 2
1 0 1 1 1 0 1 2 2 1 3 9 8 3 3 3 2 2 5 6 8 6 2 7 10 11 11 10 8 8 13 19 23 25 24 22 20 20 19 19 17 16 16 15 14 13 11 10 10 9 8 8 6 4 3 3 3 3 3 3 2 2 2 2 2 2 1 0 1 2 3 3 3 3 3 3 3 3 4 4 5 5 5 5 4 4
0 1 1 0 1 1 1 2 2 3 4 6 5 4 3 3 3 5 5 6 9 9 3 5 10 12 11 9 10 12 18 22 25 27 27 25 23 22 21 20 19 19 18 16 15 13 10 8 7 6 6 6 5 4 4 4 4 4 3 3 2 2 3 2 2 2 1 1 1 1 1 2 2 3 3 3 4 4 5 5 6 7 7 7 7 7
1 1 1 0 1 1 1 2 3 3 3 4 4 4 4 4 4 6 7 7 10 11 7 0 8 12 10 9 11 15 21 25 26 27 28 27 25 24 23 22 22 21 19 18 15 13 10 8 5 4 4 3 3 3 3 4 4 3 3 2 3 3 3 4 4 4 3 3 3 3 2 2 2 2 3 3 4 4 5 5 6 7 7 8 9 9
1 2 1 1 1 1 1 1 1 2 3 5 4 4 5 5 4 5 6 7 8 10 9 5 3 8 9 9 12 16 21 26 26 26 27 27 25 25 25 24 23 22 20 18 16 14 12 9 6 4 3 2 2 3 4 5 4 3 2 2 2 3 3 4 5 5 6 6 6 6 6 6 5 5 5 5 5 5 5 6 6 6 6 7 8 9
2 3 2 1 1 1 1 1 1 2 3 4 4 4 4 4 5 4 4 5 7 7 7 6 2 4 7 8 11 15 20 24 25 25 26 26 25 27 28 27 25 24 21 19 17 14 11 8 5 3 2 2 3 3 4 5 5 5 4 4 4 4 5 5 6 7 8 8 9 9 9 9 8 8 7 7 7 7 7 7 7 7 7 7 8 8
4 4 2 2 2 1 1 2 3 1 1 2 3 4 3 4 5 5 5 5 6 6 5 4 2 2 5 7 10 13 16 20 22 22 23 25 28 29 29 27 26 25 23 20 16 12 8 6 4 3 4 4 3 4 5 6 6 6 6 6 6 7 7 8 8 9 10 10 10 10 10 10 10 9 9 8 8 8 8 8 8 8 8 8 9 9
4 3 2 2 3 2 1 5 7 3 0 2 3 3 3 4 5 5 5 6 6 6 5 3 1 2 4 7 9 12 14 16 17 19 21 25 28 28 28 27 26 25 22 19 16 12 9 6 5 6 6 4 3 4 5 5 5 5 6 6 7 8 8 9 9 9 10 10 10 11 11 10 10 10 9 9 8 7 7 7 7 8 8 8 9 9
6 4 4 4 3 1 2 7 9 4 2 5 6 3 2 2 3 4 4 5 6 6 7 6 4 2 3 6 8 11 13 14 15 17 21 25 27 27 27 27 27 26 24 21 18 14 11 8 8 8 7 4 4 5 5 4 5 5 6 6 6 7 8 9 9 9 9 9 10 10 10 10 9 9 9 8 8 7 6 6 6 7 7 8 9 9
Wind_Direction
172 170 189 188 178 173 179 190 168 109 158 160 159 145 159 197 237 227 164 156 176 184 194 199 193 164 166 173 174 174 172 178 185 186 188 190 191 191 189 187 187 189 192 195 196 195 194 194 190 187 187 190 190 189 189 191 192 190 192 192 190 189 185 179 176 173 169 165 160 156 151 150 152 151 152 149 148 150 152 154 149 147 150 153 153 148
181 196 195 165 136 147 164 182 172 129 145 159 170 163 170 191 204 61 100 150 180 188 181 200 209 172 177 184 176 174 174 181 187 188 191 193 193 195 193 191 191 189 190 195 198 198 199 199 198 196 194 194 193 192 192 194 196 195 194 195 193 193 190 184 180 179 176 170 163 158 154 151 151 153 152 150 151 153 155 158 157 156 155 156 153 148
186 207 182 136 128 161 111 173 178 129 127 155 180 179 179 170 135 63 66 165 177 197 178 187 206 185 184 200 181 182 187 189 190 189 192 192 192 195 195 193 191 188 189 194 198 201 203 204 205 205 203 200 196 195 196 195 198 199 197 196 196 197 195 190 185 183 180 175 164 156 155 151 149 152 154 157 159 157 158 159 159 160 160 157 150 142
186 212 174 138 148 186 177 148 164 134 121 138 164 179 179 166 159 108 203 194 138 276 185 173 203 202 188 208 194 193 196 193 194 194 193 194 194 195 195 195 193 191 192 194 197 200 203 207 211 211 208 205 202 201 200 199 200 200 199 198 198 199 198 195 192 187 183 180 170 160 159 157 152 155 159 164 164 161 162 162 159 160 163 162 155 146
148 110 146 142 153 193 201 152 153 146 128 126 167 173 147 170 176 124 160 169 123 107 152 142 194 242 202 209 205 196 194 192 196 196 194 197 198 196 196 200 199 197 197 197 196 198 202 208 211 211 210 210 209 206 204 203 202 200 199 199 200 200 199 198 196 191 187 186 181 171 168 169 165 167 170 170 169 167 164 161 162 164 168 168 167 162
135 110 141 139 147 187 201 180 175 166 129 73 194 194 191 182 159 125 144 154 153 189 182 168 208 240 191 210 212 190 188 194 193 195 197 194 193 196 199 202 202 202 204 203 199 200 203 208 212 213 213 215 213 209 207 207 205 201 197 198 201 201 199 200 198 194 190 191 190 184 180 179 178 180 179 172 170 170 163 163 166 170 172 172 172 171
135 137 150 146 153 171 198 202 189 169 131 102 209 189 184 178 151 142 155 169 183 186 184 194 226 268 185 212 209 190 196 200 193 199 203 196 192 195 199 203 203 203 206 206 205 205 206 209 214 216 216 216 213 209 208 207 206 203 198 196 199 201 200 201 201 197 194 192 193 192 189 185 184 185 180 170 167 168 167 168 167 170 173 172 174 176
134 141 145 144 151 165 194 198 173 167 142 89 243 165 168 173 162 158 164 183 189 104 162 190 213 268 243 212 191 186 199 204 199 203 204 199 199 198 198 202 203 204 205 205 208 210 210 211 215 218 217 213 210 208 206 206 205 204 200 196 197 199 200 202 203 202 200 197 196 195 193 189 187 183 177 170 169 172 170 169 169 172 173 170 174 181
137 166 158 150 156 173 190 178 161 167 150 356 235 134 160 166 158 162 168 175 169 154 189 187 183 237 249 178 169 184 198 208 207 206 202 198 200 200 199 200 202 206 208 208 210 213 215 215 215 218 216 212 210 207 202 201 203 204 201 196 195 196 197 201 205 205 206 204 199 197 197 193 187 181 178 174 172 173 171 170 172 174 174 172 172 180
144 194 168 163 176 189 185 163 165 170 153 117 120 96 109 121 122 145 167 150 157 229 229 185 183 224 239 159 171 188 202 213 209 207 202 199 201 201 199 198 199 205 210 211 213 216 220 218 217 218 218 216 213 207 201 198 201 203 202 198 197 197 195 199 205 209 210 208 203 200 199 196 192 187 184 180 177 176 175 174 175 176 178 178 175 179
53 142 153 177 192 186 177 169 168 163 140 132 122 100 97 104 104 101 78 121 178 241 239 179 186 215 254 170 177 191 208 213 205 204 201 200 203 202 199 198 198 203 209 211 213 218 223 223 222 224 223 222 217 211 206 203 201 203 203 202 202 202 200 199 206 212 213 211 209 206 202 200 198 196 193 189 186 185 186 184 181 181 180 180 180 181
322 178 154 193 190 164 157 161 146 138 149 146 138 129 118 108 109 91 60 165 221 227 54 177 186 197 235 211 179 199 217 206 199 201 197 195 199 202 202 200 199 203 207 210 213 217 221 223 224 226 226 224 221 216 211 208 206 205 205 205 205 207 205 202 206 213 216 215 212 211 208 204 202 204 202 196 193 193 196 197 193 190 183 177 178 179
235 212 159 188 188 176 175 170 141 145 196 187 167 161 155 144 149 156 168 197 229 209 57 172 181 193 242 262 175 201 212 204 198 200 194 188 193 199 200 198 198 202 205 209 213 215 217 221 222 225 227 226 222 219 215 212 212 211 209 207 208 209 208 205 207 212 216 216 215 214 213 209 205 206 205 200 196 196 200 207 207 205 196 183 176 165
219 210 166 184 190 185 191 196 177 167 191 193 184 183 179 163 163 168 169 207 237 200 105 153 174 214 251 246 97 212 222 218 208 202 195 192 194 196 196 195 196 202 206 208 211 214 217 220 222 224 227 227 223 221 219 217 216 215 214 211 211 212 211 209 209 212 215 215 216 216 215 215 211 208 208 205 201 200 202 210 216 217 214 205 193 168
221 227 186 186 179 174 190 213 198 159 174 191 194 205 195 172 171 171 181 202 194 139 128 151 176 244 233 130 19 263 244 227 215 205 194 195 197 195 194 195 196 201 207 209 211 214 218 220 223 224 227 227 225 223 222 220 220 219 217 215 213 213 212 212 212 213 214 214 216 218 218 218 216 213 213 211 210 211 210 211 216 220 221 220 215 203
243 267 206 193 171 169 182 196 170 152 171 181 183 215 217 188 165 140 178 189 128 121 146 172 210 284 224 124 23 282 240 209 203 196 185 185 188 188 191 194 194 198 205 208 209 212 217 220 222 225 227 228 226 226 224 223 222 221 220 218 215 215 213 213 215 216 215 215 216 220 221 221 220 219 218 217 218 219 217 213 212 216 221 225 225 225
247 270 158 136 198 190 184 171 168 184 180 145 184 202 203 163 151 135 137 103 139 202 164 187 235 260 202 199 99 96 172 173 186 187 177 172 173 179 190 195 194 195 201 206 209 211 215 219 222 225 227 228 226 226 226 224 224 222 221 219 217 217 216 214 216 218 216 216 218 222 224 225 223 223 222 222 221 222 222 219 215 217 221 224 224 226
267 272 207 174 208 214 190 166 167 191 160 145 190 174 111 30 310 127 178 147 188 222 175 201 242 249 219 216 116 117 150 162 176 179 171 165 167 176 187 192 194 198 202 206 209 212 216 219 222 225 227 229 228 228 227 227 226 225 224 223 220 219 217 215 216 218 217 217 220 223 226 226 226 225 225 225 223 223 226 227 226 228 230 230 228 226
237 269 271 186 200 176 154 163 161 184 188 168 174 158 143 204 195 155 201 176 174 210 193 200 244 255 226 224 140 148 155 159 171 174 167 166 169 174 180 186 192 194 196 200 204 210 214 217 221 225 227 229 229 229 229 229 229 228 226 225 224 223 221 220 219 220 220 220 223 226 227 228 228 227 228 227 227 228 230 231 233 237 242 245 241 235
213 268 209 144 134 116 152 185 190 180 192 339 151 167 192 250 184 168 181 183 176 192 207 196 217 236 216 260 20 161 155 156 168 173 174 176 176 172 176 184 187 187 192 197 198 201 207 212 217 221 225 228 229 229 230 230 231 230 229 227 226 226 225 224 223 224 224 223 226 228 228 229 229 229 230 230 231 234 236 237 238 242 247 250 248 243
186 259 238 102 89 183 177 192 203 180 175 190 176 175 185 163 169 172 139 121 203 183 195 214 224 220 145 30 341 160 156 164 168 170 178 182 181 176 179 186 186 188 198 202 199 199 204 208 212 217 223 226 228 230 231 232 233 233 233 231 229 229 228 227 227 227 228 228 230 230 229 229 228 228 230 231 233 235 238 240 242 244 246 247 246 242
179 225 255 296 183 193 169 74 229 202 183 190 191 186 184 165 161 183 178 152 246 207 196 230 236 194 87 17 248 164 157 164 164 168 177 182 182 176 177 185 187 192 201 204 204 205 206 205 206 208 215 219 223 229 232 234 235 236 237 235 233 232 231 232 232 232 232 234 235 235 233 231 230 230 230 231 233 234 237 239 240 243 244 243 241 239
238 214 252 267 259 219 311 18 329 273 172 158 181 190 181 171 178 197 196 161 163 215 71 257 259 192 73 338 200 159 153 158 161 167 170 173 177 173 171 184 191 193 198 203 205 206 206 206 208 209 213 216 218 224 231 235 236 237 237 237 236 234 233 233 235 236 236 236 237 239 240 238 235 233 233 234 235 236 238 240 241 241 241 241 239 238
178 264 293 229 63 46 86 97 97 89 137 127 70 45 179 203 195 200 195 161 174 188 163 201 239 155 107 75 140 144 149 154 154 157 158 157 162 165 168 182 192 194 196 200 203 206 209 212 215 216 218 220 219 221 228 234 237 238 237 237 237 236 234 232 234 236 236 235 234 233 236 242 244 242 240 238 239 240 242 244 244 243 241 240 239 239
29 306 319 175 141 126 138 134 128 115 60 94 63 17 329 239 121 117 108 150 189 189 174 215 224 131 108 146 143 145 155 156 147 148 153 147 143 150 158 170 183 188 191 196 200 204 208 214 219 221 222 223 224 225 227 231 236 238 239 240 240 239 235 232 234 237 236 236 234 228 227 236 245 248 248 245 244 244 245 247 247 244 242 241 240 241
25 352 335 188 140 139 141 128 134 89 2 6 25 7 353 69 143 140 132 177 201 166 165 226 223 104 135 170 162 159 162 156 145 143 143 137 135 140 146 155 164 169 175 182 189 195 202 210 217 222 225 228 232 233 233 234 237 240 240 241 242 242 239 233 233 239 241 239 238 235 232 237 244 248 249 247 245 244 242 242 243 242 240 239 241 243
159 54 31 44 70 84 83 53 310 310 24 27 11 12 11 2 310 255 155 184 181 150 185 226 163 143 179 183 173 168 164 154 146 144 138 134 134 133 136 146 154 162 170 178 184 190 195 200 206 213 218 222 227 230 231 233 236 237 237 238 240 241 239 235 234 241 245 244 241 240 240 240 242 245 246 245 244 245 243 240 238 237 236 236 239 243
156 53 27 43 70 73 45 38 298 39 70 54 29 27 20 7 325 221 188 170 143 160 199 188 156 175 187 181 178 174 164 151 147 149 144 137 134 133 138 145 153 164 174 182 189 191 191 192 200 207 211 214 218 221 223 226 228 230 232 234 235 235 236 238 239 241 243 244 243 244 244 243 243 244 245 244 244 243 243 241 239 236 235 235 236 239
145 59 15 15 67 69 55 61 78 83 78 59 44 38 25 22 33 86 98 52 112 198 248 163 171 186 174 171 176 170 158 150 148 150 145 139 136 136 140 141 148 159 168 176 184 186 187 197 206 208 211 215 218 221 223 224 225 228 230 232 234 234 236 238 238 238 240 242 244 246 246 245 245 247 249 250 248 241 234 237 241 240 237 235 233 234
257 140 83 299 1 51 51 61 94 105 76 56 46 36 29 35 43 54 71 40 12 341 346 149 157 131 134 167 167 155 152 149 146 146 143 141 141 139 140 140 141 148 155 158 160 162 170 185 195 197 202 210 213 219 226 228 227 226 227 230 234 235 236 236 236 237 240 242 243 243 244 244 244 245 246 247 246 238 228 230 239 241 237 234 232 233
324 183 98 314 313 25 30 32 48 96 73 54 43 30 24 29 31 33 35 5 353 16 74 126 126 92 124 159 150 140 144 144 143 143 142 144 145 141 139 140 142 144 146 146 148 155 160 165 175 181 187 196 203 211 221 227 228 226 224 227 230 230 231 233 234 236 238 239 239 239 240 241 241 241 240 238 236 231 223 224 232 236 235 232 230 233
353 155 128 30 327 357 2 2 359 317 87 48 35 21 16 20 22 26 25 7 356 21 88 119 120 114 148 145 136 132 137 141 143 144 145 147 148 147 142 140 145 147 144 144 149 152 148 147 161 166 162 172 186 200 213 220 223 223 225 225 225 228 231 231 232 233 233 232 233 236 237 237 237 236 235 233 230 225 219 220 226 230 231 231 231 231
3 155 134 108 186 313 337 342 351 350 95 39 21 2 0 16 23 40 37 19 3 355 22 88 62 127 152 143 135 138 139 140 143 147 153 152 147 146 143 141 145 147 145 147 153 153 144 138 142 138 129 134 147 171 198 211 205 199 206 213 214 217 220 222 226 230 231 230 230 233 235 237 238 236 234 230 225 219 215 217 223 227 231 233 233 233
58 89 52 53 151 196 318 329 354 27 47 74 21 340 325 15 23 44 51 10 350 342 337 351 54 149 161 151 143 148 145 140 143 146 154 155 148 143 142 145 148 149 149 151 153 155 150 143 139 132 127 130 136 151 172 186 171 158 162 177 186 191 198 203 209 214 217 218 215 213 210 210 214 218 219 219 218 216 216 218 221 225 229 232 233 234
94 98 86 45 89 149 314 325 290 60 58 142 123 350 330 27 18 53 92 24 5 3 9 34 113 146 150 139 136 141 135 130 134 132 142 155 155 152 153 155 154 154 155 155 155 156 156 153 152 145 137 134 135 139 144 148 144 141 143 150 156 160 163 167 171 174 177 180 180 180 181 182 183 183 187 194 199 203 210 217 220 222 226 230 233 236
73 110 117 87 37 144 152 137 193 168 42 129 186 358 5 15 359 12 113 40 15 359 16 78 119 130 123 117 121 125 120 115 112 110 136 157 161 162 163 162 159 158 160 160 161 164 165 163 160 155 145 138 134 128 122 124 130 133 136 140 143 146 150 155 158 156 157 162 163 166 173 177 180 181 181 182 182 184 195 207 214 217 220 225 232 237
89 149 126 101 32 138 138 103 118 158 73 93 69 10 9 344 339 327 110 42 16 355 15 115 133 132 121 115 118 122 120 112 96 88 136 163 169 170 168 165 163 163 163 162 164 168 169 166 160 154 147 142 141 134 121 120 126 130 132 135 136 134 134 140 143 140 145 151 149 152 158 153 160 170 166 160 162 171 183 195 204 209 213 220 231 239
80 149 167 138 78 329 150 126 139 176 160 118 352 336 326 303 288 260 208 63 24 3 0 137 140 137 134 132 132 131 126 117 109 118 155 168 173 174 170 166 166 166 162 158 158 158 156 151 145 142 140 137 132 121 110 110 116 119 121 123 127 126 123 125 124 122 130 135 127 126 129 111 106 107 106 120 141 157 171 186 197 203 206 216 228 235
49 63 103 118 104 173 181 153 152 165 141 13 319 313 322 318 253 227 224 49 25 1 340 158 147 149 151 148 146 147 146 147 160 163 165 167 167 167 164 159 156 157 153 151 154 151 145 140 135 132 132 127 116 105 98 94 93 96 97 100 103 102 105 117 119 114 114 116 113 113 114 108 106 110 117 132 142 149 165 182 192 196 201 209 217 223
25 30 54 87 98 121 149 133 114 87 50 340 310 316 328 334 199 211 243 34 18 359 328 199 164 161 161 158 158 163 174 164 152 157 166 168 169 172 168 158 154 155 151 149 151 149 144 141 137 134 132 125 116 110 106 98 91 83 74 71 72 69 68 82 98 102 98 88 80 93 114 120 118 120 133 140 139 149 171 183 190 193 196 201 206 218
14 17 29 67 90 88 88 106 104 68 35 316 309 318 325 320 168 128 42 338 339 340 286 215 189 171 168 168 168 167 138 143 151 159 165 168 176 184 179 164 160 161 157 152 149 148 148 146 143 141 138 131 127 127 125 120 115 99 81 72 66 59 56 56 62 80 86 74 49 8 357 88 96 82 98 126 126 139 165 185 204 206 205 209 212 223
30 32 21 43 70 58 71 96 94 109 89 325 317 320 326 295 161 50 356 319 319 308 223 200 185 174 173 176 179 147 136 150 158 163 166 170 176 180 179 174 171 168 165 159 152 151 152 150 150 151 145 140 138 139 139 134 111 73 55 54 71 87 90 61 38 48 71 87 97 302 305 306 109 296 283 200 163 182 195 219 241 249 249 246 242 240
356 13 56 61 68 58 102 104 87 120 64 341 331 335 7 24 59 342 321 328 345 330 220 193 176 175 178 180 189 183 163 164 167 168 170 176 178 176 176 180 181 177 173 167 161 161 161 159 159 159 156 154 155 156 166 221 305 339 343 345 359 32 71 21 1 18 44 97 174 224 252 256 225 220 237 234 216 218 228 238 245 249 246 236 224 213
293 318 58 120 221 323 86 90 53 32 340 346 355 30 41 23 38 334 313 335 4 5 225 191 185 184 183 185 193 185 173 173 173 173 176 180 179 178 178 180 183 184 182 178 173 172 176 175 171 171 170 171 177 189 216 261 289 298 315 333 347 4 16 19 10 12 15 47 174 205 225 233 226 218 226 235 236 235 235 234 238 241 241 236 227 216
18 341 355 88 167 339 1 28 5 326 318 347 23 68 59 29 29 17 7 4 8 13 31 197 202 198 189 187 187 178 171 173 176 179 182 181 180 183 184 181 183 185 184 183 181 179 186 192 190 192 192 189 198 222 241 264 285 296 310 319 323 337 346 348 347 342 318 299 280 238 227 232 235 233 235 243 247 247 245 244 243 242 241 243 242 236
15 236 271 89 143 214 319 341 335 333 356 12 34 61 48 29 24 24 26 25 21 23 30 139 211 213 210 199 191 183 175 174 176 180 183 184 184 188 188 185 186 187 186 185 184 184 191 200 206 221 228 222 236 263 280 289 293 295 296 293 295 304 310 315 318 314 310 310 307 306 307 302 291 283 276 268 263 259 258 257 255 251 249 250 249 249
179 189 179 89 164 189 141 83 355 359 32 35 41 51 31 15 13 24 33 39 35 30 31 43 198 222 223 209 203 197 186 180 180 180 183 185 186 187 190 190 189 189 189 190 190 190 193 200 212 227 237 254 281 291 300 307 309 310 301 284 283 289 293 299 301 301 302 304 304 305 306 304 303 301 294 288 284 278 272 268 266 264 261 258 257 258
163 175 172 136 151 163 119 123 95 37 51 55 57 58 40 16 9 10 22 38 39 33 35 44 62 225 220 206 204 200 190 186 187 188 188 188 187 187 191 193 193 192 191 192 194 195 197 204 216 238 261 269 274 293 307 310 309 310 311 310 307 306 306 303 299 299 301 299 297 297 295 294 293 292 287 283 278 275 273 270 268 266 262 260 260 260
150 165 155 137 152 161 190 186 182 164 68 88 77 62 51 34 21 8 4 11 17 24 36 49 60 223 223 212 205 204 199 196 198 201 199 195 192 193 195 198 198 196 194 193 194 197 204 215 233 265 273 266 276 311 316 308 303 303 305 309 312 313 313 311 307 304 303 302 302 299 296 294 291 287 284 280 273 268 265 262 260 260 258 255 254 252
170 164 139 163 204 227 209 175 176 184 217 157 138 91 66 53 34 18 2 358 3 9 15 21 29 222 225 223 221 226 228 221 215 215 212 203 199 199 201 200 199 198 197 197 199 205 215 230 252 261 257 257 290 310 302 291 287 287 290 295 301 303 304 305 306 305 304 303 303 302 301 300 296 290 286 282 278 273 267 261 257 256 255 255 254 253
198 183 172 197 230 237 156 168 172 164 124 159 166 143 92 65 30 14 357 352 355 357 358 358 351 318 256 236 232 235 243 244 236 224 214 208 206 205 205 204 204 203 202 202 206 214 222 233 247 252 251 263 287 286 277 267 265 268 273 280 286 291 294 296 297 298 299 299 298 299 301 301 299 296 292 287 283 280 274 268 262 258 256 256 255 254